XINGYUN-2 01

导读

XINGYUN-2 01是中国于2020年5月12日发射的“行云二号”系列卫星首星,隶属于中国行云工程,主要承担低轨窄带物联网通信技术验证任务。它可实现对全球范围的物联网终端数据采集与传输,为海洋、气象、交通等领域提供天基物联网服务,推动中国天基物联网建设发展。

基本信息
目录编号:
45602
目录名称:
XINGYUN-2 01
国际标识:
2020-028A
轨道中心:
EARTH
卫星名称:
XINGYUN-2 01
卫星全名:
--
卫星状态:
在轨 (已飞行2313 天)
发射日期:
2020-05-12 UTC
国别 :
中国 (CN)
星等 :
--
轨道信息
数据来源 国际轨道数据
星历时间: 2026-09-11T01:07:57+0800
10小时前
查看轨道信息
半长轴: 6907.869km
偏心率: 0.0007401
轨道倾角: 97.494°
近地点辐角 271.780°
升交点赤经 244.469°
平近点角 88.258°
近地点: 524.619km
远地点: 534.845km
周期: 95.230分钟
每日圈数: 15.121213
详细信息
使用方式:
暂无
2D轨道图
3D轨道图
轨道高度分析图
轨道倾角分析图
轨道综合分析图
查看轨道综合分析图
交会数据列表
事件ID 空间交会对象 最接近时刻(TCA) 交会距离 交会风险概率(CRP) 交会风险指数(CRI) 操作
CDM_260911-171403-756904-560224
2026-09-11T
17:14:43+0000
2.422 km
极远距离
1.833009E-6 低风险 0.4
与全量物体交会距离演化趋势
与全量物体交会风险概率演化趋势